K6OUA-11 Weather Reports


time (UTC)temp
F
wind
direction
speed
knots
gust
knots
rain 1hr
in
rain 24hr
in
rain mn
in
humidity
%
barometer
mb
20260507140529 56 116 2.6 2.6 0.00 0.00 0.00 85
20260507140327 56 112 1.7 2.6 0.00 0.00 0.00 86
20260507140125 56 108 1.7 1.7 0.00 0.00 0.00 86
20260507135923 56 105 1.7 1.7 0.00 0.00 0.00 85
20260507135721 56 116 1.7 1.7 0.00 0.00 0.00 86
20260507135317 56 126 0.9 2.6 0.00 0.00 0.00 86
20260507135116 55 126 0.9 2.6 0.00 0.00 0.00 86
20260507134913 55 123 0.9 2.6 0.00 0.00 0.00 87
20260507134711 55 125 0.9 3.5 0.00 0.00 0.00 87
20260507134510 55 115 0.9 3.5 0.00 0.00 0.00 88
20260507134308 55 123 0.9 2.6 0.00 0.00 0.00 88
20260507134106 55 111 2.6 2.6 0.00 0.00 0.00 89
20260507133904 54 116 0.9 2.6 0.00 0.00 0.00 89
20260507133702 54 106 0.9 0.0 0.00 0.00 0.00 89
20260507133500 54 81 0.0 0.0 0.00 0.00 0.00 89
20260507133258 54 81 0.0 0.0 0.00 0.00 0.00 89
20260507133057 54 81 0.0 0.0 0.00 0.00 0.00 90
20260507132855 54 81 0.0 0.0 0.00 0.00 0.00 90
20260507132653 54 81 0.0 0.0 0.00 0.00 0.00 90
20260507132451 54 81 0.0 0.0 0.00 0.00 0.00 90
20260507132249 54 81 0.0 1.7 0.00 0.00 0.00 90
20260507131643 53 81 0.0 3.5 0.00 0.00 0.00 90
20260507131442 53 108 0.9 3.5 0.00 0.00 0.00 90
20260507131240 53 116 1.7 1.7 0.00 0.00 0.00 90
20260507131038 53 111 0.9 1.7 0.00 0.00 0.00 90
20260507130836 53 133 0.9 1.7 0.00 0.00 0.00 90
20260507130633 53 105 0.0 1.7 0.00 0.00 0.00 90
20260507130432 53 126 0.9 1.7 0.00 0.00 0.00 91
20260507130230 53 119 0.9 1.7 0.00 0.00 0.00 91
20260507130028 53 116 0.9 1.7 0.00 0.00 0.00 91
20260507125826 53 111 0.9 1.7 0.00 0.00 0.00 91
20260507125624 53 97 0.9 1.7 0.00 0.00 0.00 91
20260507125422 53 109 1.7 1.7 0.00 0.00 0.00 90
20260507125220 53 113 1.7 1.7 0.00 0.00 0.00 89
20260507125018 53 105 0.0 1.7 0.00 0.00 0.00 89
20260507124816 53 116 0.9 0.0 0.00 0.00 0.00 88
20260507124211 54 87 0.0 0.0 0.00 0.00 0.00 89
20260507124009 54 87 0.0 0.0 0.00 0.00 0.00 89
20260507123807 54 87 0.0 0.0 0.00 0.00 0.00 89
20260507123605 54 87 0.0 0.0 0.00 0.00 0.00 89
20260507123403 54 87 0.0 0.0 0.00 0.00 0.00 89
20260507123159 54 87 0.0 0.0 0.00 0.00 0.00 89
20260507122959 54 87 0.0 0.0 0.00 0.00 0.00 89
20260507122556 54 87 0.0 0.9 0.00 0.00 0.00 89
20260507122353 54 87 0.0 0.9 0.00 0.00 0.00 89
20260507122152 54 87 0.0 1.7 0.00 0.00 0.00 89
20260507121748 54 87 0.0 0.0 0.00 0.00 0.00 89
20260507121546 54 71 0.0 0.0 0.00 0.00 0.00 89
20260507121344 54 71 0.0 0.0 0.00 0.00 0.00 89
20260507121142 54 71 0.0 0.0 0.00 0.00 0.00 89
20260507120738 54 71 0.0 2.6 0.00 0.00 0.00 90
20260507120536 54 71 0.0 2.6 0.00 0.00 0.00 90
20260507120334 54 71 0.0 2.6 0.00 0.00 0.00 90
20260507120133 54 102 1.7 0.9 0.00 0.00 0.00 90
20260507115931 54 92 0.0 0.9 0.00 0.00 0.00 90
20260507115728 54 92 0.0 0.9 0.00 0.00 0.00 90
20260507115527 54 70 0.0 0.9 0.00 0.00 0.00 90
20260507115325 54 91 0.0 0.9 0.00 0.00 0.00 90
20260507115123 54 91 0.0 0.0 0.00 0.00 0.00 90
20260507114921 54 71 0.0 0.0 0.00 0.00 0.00 90
20260507114719 54 71 0.0 0.0 0.00 0.00 0.00 90
20260507114518 54 71 0.0 0.0 0.00 0.00 0.00 89
20260507114315 54 71 0.0 0.0 0.00 0.00 0.00 89
20260507114114 54 71 0.0 0.0 0.00 0.00 0.00 89
20260507113911 54 71 0.0 0.0 0.00 0.00 0.00 89
20260507113709 54 71 0.0 0.0 0.00 0.00 0.00 89
20260507113507 54 71 0.0 0.0 0.00 0.00 0.00 89
20260507113306 54 71 0.0 0.0 0.00 0.00 0.00 89
20260507112902 54 71 0.0 0.0 0.00 0.00 0.00 89
20260507112700 54 71 0.0 0.0 0.00 0.00 0.00 89
20260507112257 54 60 0.0 0.0 0.00 0.00 0.00 89
20260507112055 54 77 0.0 0.0 0.00 0.00 0.00 89
20260507111651 54 77 0.0 0.0 0.00 0.00 0.00 89
20260507111449 54 77 0.0 0.0 0.00 0.00 0.00 89
20260507111247 54 77 0.0 0.0 0.00 0.00 0.00 89
20260507111045 54 91 0.0 0.0 0.00 0.00 0.00 89
20260507110843 54 91 0.0 0.0 0.00 0.00 0.00 89
20260507110439 54 91 0.0 0.0 0.00 0.00 0.00 88
20260507110237 54 91 0.0 0.0 0.00 0.00 0.00 88
20260507110034 54 91 0.0 0.0 0.00 0.00 0.00 88
20260507105430 54 91 0.0 0.0 0.00 0.00 0.00 89
20260507105228 54 91 0.0 0.0 0.00 0.00 0.00 88
20260507105026 54 91 0.0 0.0 0.00 0.00 0.00 88
20260507104824 54 91 0.0 0.0 0.00 0.00 0.00 88
20260507104420 54 91 0.0 0.0 0.00 0.00 0.00 87
20260507104017 54 91 0.0 0.0 0.00 0.00 0.00 87
20260507103815 55 91 0.0 0.0 0.00 0.00 0.00 87
20260507103613 55 91 0.0 0.0 0.00 0.00 0.00 87
20260507103411 55 91 0.0 0.0 0.00 0.00 0.00 86
20260507103007 55 91 0.0 0.0 0.00 0.00 0.00 87
20260507102805 55 91 0.0 0.0 0.00 0.00 0.00 87
20260507102603 55 91 0.0 0.0 0.00 0.00 0.00 87
20260507102158 55 91 0.0 0.0 0.00 0.00 0.00 87
20260507101957 55 91 0.0 0.0 0.00 0.00 0.00 87
20260507101756 55 91 0.0 0.0 0.00 0.00 0.00 87
20260507101552 55 91 0.0 0.0 0.00 0.00 0.00 87
20260507101350 55 91 0.0 0.0 0.00 0.00 0.00 87
20260507101149 55 91 0.0 0.0 0.00 0.00 0.00 87
20260507100946 55 91 0.0 0.0 0.00 0.00 0.00 87
20260507100744 55 91 0.0 0.0 0.00 0.00 0.00 87
20260507100543 55 91 0.0 0.0 0.00 0.00 0.00 87
20260507100140 55 91 0.0 0.0 0.00 0.00 0.00 87
20260507095938 55 91 0.0 0.0 0.00 0.00 0.00 87
20260507095737 55 91 0.0 0.0 0.00 0.00 0.00 87
20260507095535 55 91 0.0 0.0 0.00 0.00 0.00 86
20260507095333 55 91 0.0 0.0 0.00 0.00 0.00 86
20260507095131 55 91 0.0 0.0 0.00 0.00 0.00 86
20260507094928 55 91 0.0 0.0 0.00 0.00 0.00 86
20260507094725 55 91 0.0 0.0 0.00 0.00 0.00 85
20260507094525 55 91 0.0 0.0 0.00 0.00 0.00 85
20260507094321 56 91 0.0 0.0 0.00 0.00 0.00 85
20260507094121 56 91 0.0 1.7 0.00 0.00 0.00 85
20260507093918 56 91 0.0 1.7 0.00 0.00 0.00 86
20260507093717 56 91 0.0 2.6 0.00 0.00 0.00 86
20260507093516 56 91 0.0 2.6 0.00 0.00 0.00 85
20260507093314 56 112 1.7 1.7 0.00 0.00 0.00 85
20260507092910 56 116 1.7 1.7 0.00 0.00 0.00 86
20260507092506 56 74 0.0 0.0 0.00 0.00 0.00 86
20260507092307 56 74 0.0 1.7 0.00 0.00 0.00 86
20260507092102 56 74 0.0 1.7 0.00 0.00 0.00 86
20260507091658 56 74 0.0 2.6 0.00 0.00 0.00 85
20260507091457 56 118 1.7 2.6 0.00 0.00 0.00 86
20260507090851 55 99 0.9 2.6 0.00 0.00 0.00 87
20260507090649 55 260 0.0 0.0 0.00 0.00 0.00 87
20260507090447 55 260 0.0 0.0 0.00 0.00 0.00 87
20260507090043 55 260 0.0 0.0 0.00 0.00 0.00 87
20260507085841 55 260 0.0 0.0 0.00 0.00 0.00 87
20260507085639 55 260 0.0 0.0 0.00 0.00 0.00 87
20260507085437 55 260 0.0 0.0 0.00 0.00 0.00 87
20260507085235 55 260 0.0 0.0 0.00 0.00 0.00 87
20260507085034 55 260 0.0 0.0 0.00 0.00 0.00 87
20260507084834 55 260 0.0 0.0 0.00 0.00 0.00 86
20260507084630 55 260 0.0 0.0 0.00 0.00 0.00 87
20260507084428 55 260 0.0 0.0 0.00 0.00 0.00 87
20260507083620 55 260 0.0 0.0 0.00 0.00 0.00 87
20260507083418 55 260 0.0 0.0 0.00 0.00 0.00 87
20260507083216 55 260 0.0 0.0 0.00 0.00 0.00 87
20260507083015 55 260 0.0 0.0 0.00 0.00 0.00 87
20260507082409 55 260 0.0 0.0 0.00 0.00 0.00 87
20260507082207 55 260 0.0 0.0 0.00 0.00 0.00 87
20260507082003 55 260 0.0 0.0 0.00 0.00 0.00 87
20260507081359 55 260 0.0 0.0 0.00 0.00 0.00 86
20260507081156 55 260 0.0 0.0 0.00 0.00 0.00 87
20260507081110 55 260 0.0 0.0 0.00 0.00 0.00 87
20260507080955 55 260 0.0 0.0 0.00 0.00 0.00 87
20260507080754 56 260 0.0 0.0 0.00 0.00 0.00 87
20260507080552 55 260 0.0 0.0 0.00 0.00 0.00 87
20260507080350 55 260 0.0 0.0 0.00 0.00 0.00 87
20260507080148 55 260 0.0 0.0 0.00 0.00 0.00 87
20260507075946 55 260 0.0 0.0 0.00 0.00 0.00 87
20260507075742 55 260 0.0 0.0 0.00 0.00 0.00 87
20260507075138 55 260 0.0 0.0 0.00 0.00 0.00 87
20260507074937 55 260 0.0 0.0 0.00 0.00 0.00 87
20260507074735 55 260 0.0 0.0 0.00 0.00 0.00 87
20260507074533 55 260 0.0 0.0 0.00 0.00 0.00 87
20260507074330 55 260 0.0 0.0 0.00 0.00 0.00 86
20260507074129 55 260 0.0 0.0 0.00 0.00 0.00 86
20260507073927 55 260 0.0 0.0 0.00 0.00 0.00 86
20260507073725 55 260 0.0 0.0 0.00 0.00 0.00 86
20260507073523 55 260 0.0 0.0 0.00 0.00 0.00 86
20260507073321 55 260 0.0 0.0 0.00 0.00 0.00 86
20260507072917 55 260 0.0 0.0 0.00 0.00 0.00 86
20260507072715 55 260 0.0 0.0 0.00 0.00 0.00 86
20260507072514 56 260 0.0 0.0 0.00 0.00 0.00 86
20260507072312 56 260 0.0 0.0 0.00 0.00 0.00 86
20260507072110 56 260 0.0 0.0 0.00 0.00 0.00 86
20260507071908 56 260 0.0 0.0 0.00 0.00 0.00 85
20260507071706 56 260 0.0 0.0 0.00 0.00 0.00 85
20260507071504 56 260 0.0 0.0 0.00 0.00 0.00 85
20260507071302 56 260 0.0 0.0 0.00 0.00 0.00 86
20260507071101 56 260 0.0 0.0 0.00 0.00 0.00 86
20260507070858 56 260 0.0 0.0 0.00 0.00 0.00 85
20260507070657 56 260 0.0 0.0 0.00 0.00 0.00 86
20260507070455 56 260 0.0 0.0 0.00 0.00 0.00 86
20260507070253 56 260 0.0 0.0 0.00 0.00 0.00 86
20260507070051 56 260 0.0 0.0 0.00 0.00 0.00 85
20260507065647 56 260 0.0 0.0 0.00 0.00 0.00 85
20260507065243 56 260 0.0 0.0 0.00 0.00 0.00 85
20260507065041 56 260 0.0 0.0 0.00 0.00 0.00 86
20260507064637 56 260 0.0 0.0 0.00 0.00 0.00 86
20260507064436 56 260 0.0 0.0 0.00 0.00 0.00 86
20260507064234 56 260 0.0 0.0 0.00 0.00 0.00 86
20260507064032 56 260 0.0 0.0 0.00 0.00 0.00 86
20260507063830 56 260 0.0 0.0 0.00 0.00 0.00 86
20260507063628 56 260 0.0 0.0 0.00 0.00 0.00 86
20260507063426 56 260 0.0 0.0 0.00 0.00 0.00 86
20260507063022 56 260 0.0 0.0 0.00 0.00 0.00 86
20260507062820 56 260 0.0 0.0 0.00 0.00 0.00 86
20260507062619 56 260 0.0 0.0 0.00 0.00 0.00 86
20260507062417 56 260 0.0 0.0 0.00 0.00 0.00 86
20260507062215 56 260 0.0 0.0 0.00 0.00 0.00 85
20260507062013 56 260 0.0 0.0 0.00 0.00 0.00 85
20260507061811 56 260 0.0 0.0 0.00 0.00 0.00 85
20260507061609 56 260 0.0 0.0 0.00 0.00 0.00 85
20260507061407 56 260 0.0 0.0 0.00 0.00 0.00 85
20260507061205 56 260 0.0 0.0 0.00 0.00 0.00 85
20260507061003 56 260 0.0 0.0 0.00 0.00 0.00 85
20260507060801 57 260 0.0 0.0 0.00 0.00 0.00 85
20260507060559 57 260 0.0 0.0 0.00 0.00 0.00 85
20260507060357 57 260 0.0 0.0 0.00 0.00 0.00 85
20260507060155 57 260 0.0 0.0 0.00 0.00 0.00 85
20260507055952 57 260 0.0 0.0 0.00 0.00 0.00 85
20260507055752 57 260 0.0 0.0 0.00 0.00 0.00 85
20260507055550 57 260 0.0 0.0 0.00 0.00 0.00 85
20260507055348 57 260 0.0 0.0 0.00 0.00 0.00 85
20260507055146 57 260 0.0 0.0 0.00 0.00 0.00 85
20260507054942 57 260 0.0 0.0 0.00 0.00 0.00 85
20260507054742 57 260 0.0 0.0 0.00 0.00 0.00 85
20260507054540 57 260 0.0 0.0 0.00 0.00 0.00 85
20260507054338 57 260 0.0 0.0 0.00 0.00 0.00 85
20260507054135 57 260 0.0 0.0 0.00 0.00 0.00 85
20260507053934 57 260 0.0 0.0 0.00 0.00 0.00 85
20260507053733 57 260 0.0 0.0 0.00 0.00 0.00 85
20260507053531 57 260 0.0 0.0 0.00 0.00 0.00 84
20260507053329 57 260 0.0 0.0 0.00 0.00 0.00 84
20260507053127 58 260 0.0 0.0 0.00 0.00 0.00 84
20260507052925 57 260 0.0 0.0 0.00 0.00 0.00 84
20260507052723 57 260 0.0 0.0 0.00 0.00 0.00 84
20260507052522 57 260 0.0 0.0 0.00 0.00 0.00 83
20260507052319 58 260 0.0 0.0 0.00 0.00 0.00 83
20260507052118 58 260 0.0 0.0 0.00 0.00 0.00 83
20260507051915 58 260 0.0 0.0 0.00 0.00 0.00 82
20260507051714 58 260 0.0 0.0 0.00 0.00 0.00 83
20260507051512 58 260 0.0 0.0 0.00 0.00 0.00 83
20260507051108 58 260 0.0 0.0 0.00 0.00 0.00 83
20260507050906 59 260 0.0 0.0 0.00 0.00 0.00 83
20260507050704 59 260 0.0 0.0 0.00 0.00 0.00 83
20260507050502 59 260 0.0 0.0 0.00 0.00 0.00 83
20260507050300 59 260 0.0 0.0 0.00 0.00 0.00 83
20260507050058 59 260 0.0 0.0 0.00 0.00 0.00 82
20260507045855 59 260 0.0 0.0 0.00 0.00 0.00 82
20260507045655 59 260 0.0 0.0 0.00 0.00 0.00 82
20260507045452 59 260 0.0 0.0 0.00 0.00 0.00 82
20260507045250 59 260 0.0 0.0 0.00 0.00 0.00 82
20260507045048 59 260 0.0 0.0 0.00 0.00 0.00 81
20260507044847 59 260 0.0 0.0 0.00 0.00 0.00 81
20260507044443 59 260 0.0 0.0 0.00 0.00 0.00 81
20260507044241 59 260 0.0 0.0 0.00 0.00 0.00 81
20260507043635 60 260 0.0 0.0 0.00 0.00 0.00 80
20260507043434 60 260 0.0 0.0 0.00 0.00 0.00 80
20260507043030 60 260 0.0 0.0 0.00 0.00 0.00 80
20260507042828 60 260 0.0 0.0 0.00 0.00 0.00 80
20260507042626 60 260 0.0 0.0 0.00 0.00 0.00 79
20260507042422 60 260 0.0 0.0 0.00 0.00 0.00 79
20260507042222 60 260 0.0 0.0 0.00 0.00 0.00 79
20260507042020 60 260 0.0 0.0 0.00 0.00 0.00 79
20260507041818 60 260 0.0 1.7 0.00 0.00 0.00 79
20260507041616 60 260 0.0 1.7 0.00 0.00 0.00 79
20260507041414 60 260 0.0 1.7 0.00 0.00 0.00 79
20260507041213 60 260 0.0 1.7 0.00 0.00 0.00 79
20260507041011 60 260 0.0 1.7 0.00 0.00 0.00 79
20260507040809 61 288 0.0 1.7 0.00 0.00 0.00 79
20260507040607 61 310 0.0 1.7 0.00 0.00 0.00 79
20260507040405 61 302 0.9 1.7 0.00 0.00 0.00 78
20260507040201 61 302 1.7 0.9 0.00 0.00 0.00 78
20260507040001 61 293 0.0 0.9 0.00 0.00 0.00 78
20260507035759 61 305 0.0 1.7 0.00 0.00 0.00 77
20260507035557 61 298 0.0 1.7 0.00 0.00 0.00 77
20260507035355 61 298 0.0 1.7 0.00 0.00 0.00 77
20260507034952 61 261 0.0 1.7 0.00 0.00 0.00 76
20260507034750 61 261 0.0 0.9 0.00 0.00 0.00 75
20260507034548 61 274 0.0 0.9 0.00 0.00 0.00 75
20260507034347 62 274 0.0 0.9 0.00 0.00 0.00 75
20260507033942 62 296 0.9 0.9 0.00 0.00 0.00 75
20260507033740 62 257 0.0 0.0 0.00 0.00 0.00 75
20260507033538 62 257 0.0 0.0 0.00 0.00 0.00 75
20260507033336 62 257 0.0 0.0 0.00 0.00 0.00 75
20260507033134 62 257 0.0 1.7 0.00 0.00 0.00 75
20260507032932 62 257 0.0 1.7 0.00 0.00 0.00 74
20260507032730 62 257 0.0 2.6 0.00 0.00 0.00 75
20260507032529 62 257 0.0 2.6 0.00 0.00 0.00 75
20260507032327 62 286 1.7 2.6 0.00 0.00 0.00 75
20260507032125 62 288 0.9 0.9 0.00 0.00 0.00 74
20260507031923 62 262 0.0 0.9 0.00 0.00 0.00 74
20260507031721 62 240 0.0 0.0 0.00 0.00 0.00 74
20260507031519 62 239 0.0 0.0 0.00 0.00 0.00 73
20260507031315 62 239 0.0 0.0 0.00 0.00 0.00 73
20260507031115 63 239 0.0 0.0 0.00 0.00 0.00 72
20260507030913 63 239 0.0 0.0 0.00 0.00 0.00 72
20260507030712 63 239 0.0 1.7 0.00 0.00 0.00 72
20260507030510 63 239 0.0 1.7 0.00 0.00 0.00 71
20260507025903 63 282 1.7 1.7 0.00 0.00 0.00 71
20260507025702 63 279 0.9 0.0 0.00 0.00 0.00 71
20260507025055 64 253 0.0 0.0 0.00 0.00 0.00 69
20260507024854 64 253 0.0 0.0 0.00 0.00 0.00 68
20260507024651 64 253 0.0 0.0 0.00 0.00 0.00 68
20260507024249 65 253 0.0 0.0 0.00 0.00 0.00 67
20260507024046 65 253 0.0 0.0 0.00 0.00 0.00 67
20260507023845 65 253 0.0 0.0 0.00 0.00 0.00 67
20260507023441 65 253 0.0 3.5 0.00 0.00 0.00 67
20260507023239 65 253 0.0 5.2 0.00 0.00 0.00 67
20260507023037 65 284 1.7 5.2 0.00 0.00 0.00 67
20260507022432 65 274 3.5 5.2 0.00 0.00 0.00 66
20260507022028 66 293 3.5 6.1 0.00 0.00 0.00 65
20260507021624 66 286 3.5 5.2 0.00 0.00 0.00 64
20260507021422 66 300 2.6 5.2 0.00 0.00 0.00 63
20260507021220 66 275 3.5 6.1 0.00 0.00 0.00 63
20260507021018 66 289 3.5 6.1 0.00 0.00 0.00 63
20260507020816 66 272 4.3 7.0 0.00 0.00 0.00 62
20260507020615 66 281 1.7 7.0 0.00 0.00 0.00 62
20260507020412 66 303 2.6 7.0 0.00 0.00 0.00 62
20260507020211 66 274 5.2 7.0 0.00 0.00 0.00 62
20260507020009 66 278 5.2 7.0 0.00 0.00 0.00 62
20260507015805 67 265 6.1 7.0 0.00 0.00 0.00 62
20260507015603 67 267 4.3 7.0 0.00 0.00 0.00 62
20260507015401 66 278 5.2 7.0 0.00 0.00 0.00 61
20260507015159 67 274 6.1 6.1 0.00 0.00 0.00 60
20260507014957 67 307 2.6 6.1 0.00 0.00 0.00 61
20260507014757 67 254 4.3 5.2 0.00 0.00 0.00 60
20260507014555 67 270 4.3 5.2 0.00 0.00 0.00 61
20260507014353 67 279 2.6 5.2 0.00 0.00 0.00 60
20260507014151 67 246 2.6 8.7 0.00 0.00 0.00 61
20260507013948 67 277 4.3 8.7 0.00 0.00 0.00 61
20260507013748 67 278 4.3 7.8 0.00 0.00 0.00 60
20260507013546 67 279 3.5 7.8 0.00 0.00 0.00 59
20260507013344 67 271 7.0 7.8 0.00 0.00 0.00 59
20260507012940 68 309 2.6 7.8 0.00 0.00 0.00 59
20260507012738 68 268 1.7 8.7 0.00 0.00 0.00 59
20260507012537 68 230 2.6 8.7 0.00 0.00 0.00 59
20260507012333 68 222 3.5 8.7 0.00 0.00 0.00 59
20260507012132 67 246 6.1 10.4 0.00 0.00 0.00 58
20260507011931 68 295 4.3 10.4 0.00 0.00 0.00 59
20260507011729 67 279 6.1 8.7 0.00 0.00 0.00 59
20260507011325 68 284 5.2 8.7 0.00 0.00 0.00 57
20260507011121 68 265 6.1 7.8 0.00 0.00 0.00 57
20260507010921 68 247 0.0 7.8 0.00 0.00 0.00 57
20260507010719 68 265 4.3 11.3 0.00 0.00 0.00 57
20260507010611 68 248 1.7 11.3 0.00 0.00 0.00 57
20260507010517 68 248 1.7 11.3 0.00 0.00 0.00 57
20260507010315 68 241 5.2 10.4 0.00 0.00 0.00 58
20260507005912 68 275 5.2 10.4 0.00 0.00 0.00 57
20260507005710 68 253 6.1 11.3 0.00 0.00 0.00 57
20260507005507 68 257 5.2 11.3 0.00 0.00 0.00 57
20260507005306 68 275 6.1 11.3 0.00 0.00 0.00 58
20260507005104 68 275 6.1 11.3 0.00 0.00 0.00 58
20260507004902 68 274 7.0 11.3 0.00 0.00 0.00 57
20260507004700 69 251 9.6 11.3 0.00 0.00 0.00 57
20260507004458 69 250 2.6 11.3 0.00 0.00 0.00 58
20260507004256 69 272 7.8 10.4 0.00 0.00 0.00 58
20260507004055 68 253 3.5 10.4 0.00 0.00 0.00 58
20260507003851 68 258 6.1 10.4 0.00 0.00 0.00 58
20260507003449 68 244 7.0 10.4 0.00 0.00 0.00 58
20260507003245 68 284 6.1 11.3 0.00 0.00 0.00 57
20260507003045 69 267 8.7 11.3 0.00 0.00 0.00 56
20260507002843 69 293 2.6 11.3 0.00 0.00 0.00 57
20260507002641 69 275 1.7 11.3 0.00 0.00 0.00 58
20260507002437 69 257 6.1 11.3 0.00 0.00 0.00 57
20260507002035 70 258 6.1 12.2 0.00 0.00 0.00 56
20260507001833 69 272 7.8 12.2 0.00 0.00 0.00 56
20260507001631 69 264 5.2 12.2 0.00 0.00 0.00 56
20260507001228 69 244 2.6 13.9 0.00 0.00 0.00 57
20260507000823 69 255 6.1 13.9 0.00 0.00 0.00 57
20260507000620 69 279 8.7 11.3 0.00 0.00 0.00 56
20260507000420 70 260 7.8 11.3 0.00 0.00 0.00 56
20260507000216 70 255 1.7 11.3 0.00 0.00 0.00 57
20260507000014 69 251 7.8 11.3 0.00 0.00 0.00 56
20260506235814 69 268 6.1 9.6 0.00 0.00 0.00 56
20260506235612 70 258 7.0 9.6 0.00 0.00 0.00 55
20260506235410 70 255 7.8 9.6 0.00 0.00 0.00 56
20260506235208 71 277 7.8 13.0 0.00 0.00 0.00 55
20260506235006 71 247 2.6 13.0 0.00 0.00 0.00 55
20260506234602 70 270 7.8 13.0 0.00 0.00 0.00 56
20260506234400 70 272 7.0 13.0 0.00 0.00 0.00 55
20260506234158 70 261 8.7 13.0 0.00 0.00 0.00 56
20260506233552 70 264 2.6 12.2 0.00 0.00 0.00 57
20260506233350 70 230 7.0 12.2 0.00 0.00 0.00 57
20260506233148 70 268 7.0 12.2 0.00 0.00 0.00 57
20260506232946 70 248 7.8 12.2 0.00 0.00 0.00 57
20260506232743 71 281 6.1 12.2 0.00 0.00 0.00 55
20260506232543 71 244 7.0 12.2 0.00 0.00 0.00 57
20260506232341 71 267 7.8 12.2 0.00 0.00 0.00 56
20260506231936 71 272 7.0 9.6 0.00 0.00 0.00 54
20260506231734 72 277 1.7 8.7 0.00 0.00 0.00 55
20260506231531 72 305 0.9 8.7 0.00 0.00 0.00 55
20260506231331 72 246 6.1 8.7 0.00 0.00 0.00 55
20260506230927 71 268 2.6 13.9 0.00 0.00 0.00 56
20260506230724 71 277 5.2 14.8 0.00 0.00 0.00 56
20260506230523 71 248 4.3 14.8 0.00 0.00 0.00 56
20260506230319 72 254 13.9 13.0 0.00 0.00 0.00 54
20260506230119 71 71 0.9 13.0 0.00 0.00 0.00 56
20260506225917 71 198 2.6 13.0 0.00 0.00 0.00 55
20260506225713 71 244 3.5 11.3 0.00 0.00 0.00 56
20260506225513 71 274 7.0 11.3 0.00 0.00 0.00 55
20260506225311 72 270 7.0 13.9 0.00 0.00 0.00 55
20260506225109 71 271 6.1 13.9 0.00 0.00 0.00 55
20260506224705 72 270 6.1 10.4 0.00 0.00 0.00 54
20260506224301 72 240 0.9 12.2 0.00 0.00 0.00 54
20260506224059 72 282 1.7 12.2 0.00 0.00 0.00 54
20260506223857 71 261 5.2 12.2 0.00 0.00 0.00 53
20260506223655 72 255 8.7 12.2 0.00 0.00 0.00 53
20260506223251 73 219 4.3 11.3 0.00 0.00 0.00 52
20260506223050 73 248 2.6 11.3 0.00 0.00 0.00 52
20260506222847 72 250 11.3 11.3 0.00 0.00 0.00 52
20260506222443 73 198 2.6 12.2 0.00 0.00 0.00 51
20260506222240 72 241 1.7 13.0 0.00 0.00 0.00 52
20260506222038 72 281 2.6 13.0 0.00 0.00 0.00 52
20260506221837 72 248 7.8 13.0 0.00 0.00 0.00 51
20260506221434 72 264 6.1 12.2 0.00 0.00 0.00 51
20260506221232 72 271 7.0 13.0 0.00 0.00 0.00 51
20260506221030 72 285 1.7 13.0 0.00 0.00 0.00 51
20260506220828 72 267 9.6 13.0 0.00 0.00 0.00 51
20260506220222 72 246 9.6 11.3 0.00 0.00 0.00 51
20260506220020 72 261 6.1 11.3 0.00 0.00 0.00 51
20260506215818 72 274 6.1 11.3 0.00 0.00 0.00 52
20260506215616 72 289 4.3 11.3 0.00 0.00 0.00 50
20260506215414 72 261 9.6 11.3 0.00 0.00 0.00 50
20260506215212 73 246 4.3 11.3 0.00 0.00 0.00 51
20260506215010 72 261 6.1 11.3 0.00 0.00 0.00 52
20260506214806 72 284 6.1 16.5 0.00 0.00 0.00 53
20260506214606 72 246 7.0 16.5 0.00 0.00 0.00 52
20260506214404 71 265 7.0 16.5 0.00 0.00 0.00 52
20260506214202 71 282 6.1 11.3 0.00 0.00 0.00 51
20260506214001 72 293 7.8 11.3 0.00 0.00 0.00 52
20260506213758 72 233 4.3 11.3 0.00 0.00 0.00 52
20260506213557 72 268 5.2 11.3 0.00 0.00 0.00 52
20260506213355 72 257 7.8 11.3 0.00 0.00 0.00 52
20260506213152 71 289 5.2 11.3 0.00 0.00 0.00 53
20260506212749 72 247 9.6 13.0 0.00 0.00 0.00 51
20260506212547 72 253 5.2 13.0 0.00 0.00 0.00 51
20260506212345 73 277 5.2 13.0 0.00 0.00 0.00 51
20260506211739 72 305 0.9 11.3 0.00 0.00 0.00 53
20260506211537 71 260 7.8 11.3 0.00 0.00 0.00 53
20260506211335 71 286 7.0 11.3 0.00 0.00 0.00 52
20260506211133 72 243 7.0 11.3 0.00 0.00 0.00 53
20260506210931 72 275 0.9 11.3 0.00 0.00 0.00 54
20260506210729 72 264 3.5 11.3 0.00 0.00 0.00 54
20260506210526 71 282 7.8 11.3 0.00 0.00 0.00 54
20260506210326 71 246 6.1 11.3 0.00 0.00 0.00 55
20260506205921 71 303 6.1 11.3 0.00 0.00 0.00 52
20260506205719 72 248 3.5 11.3 0.00 0.00 0.00 53
20260506205515 72 282 2.6 11.3 0.00 0.00 0.00 54
20260506205315 72 250 7.8 11.3 0.00 0.00 0.00 53
20260506205113 72 300 5.2 11.3 0.00 0.00 0.00 52
20260506204911 72 250 1.7 11.3 0.00 0.00 0.00 54
20260506204507 71 289 1.7 11.3 0.00 0.00 0.00 54
20260506204306 71 272 7.0 13.9 0.00 0.00 0.00 54
20260506204104 71 167 0.9 13.9 0.00 0.00 0.00 55
20260506203902 71 262 7.8 13.9 0.00 0.00 0.00 53
20260506203700 71 246 6.1 13.0 0.00 0.00 0.00 55
20260506203457 70 296 7.8 13.0 0.00 0.00 0.00 53
20260506203255 71 253 7.0 10.4 0.00 0.00 0.00 53
20260506203054 72 265 5.2 10.4 0.00 0.00 0.00 51
20260506202851 73 271 9.6 10.4 0.00 0.00 0.00 49
20260506202650 73 270 6.1 10.4 0.00 0.00 0.00 49
20260506202447 74 282 4.3 10.4 0.00 0.00 0.00 50
20260506202246 73 293 2.6 8.7 0.00 0.00 0.00 50
20260506202044 73 264 4.3 8.7 0.00 0.00 0.00 50
20260506201840 73 278 1.7 8.7 0.00 0.00 0.00 51
20260506201640 73 271 2.6 9.6 0.00 0.00 0.00 50
20260506201438 73 202 0.9 9.6 0.00 0.00 0.00 49
20260506201236 73 278 5.2 7.8 0.00 0.00 0.00 49
20260506201034 73 264 5.2 7.8 0.00 0.00 0.00 48
20260506200832 73 281 5.2 7.8 0.00 0.00 0.00 49
20260506200226 72 239 2.6 10.4 0.00 0.00 0.00 51
20260506200024 72 229 1.7 10.4 0.00 0.00 0.00 51
20260506195822 71 281 7.0 10.4 0.00 0.00 0.00 48
20260506195620 72 267 6.1 11.3 0.00 0.00 0.00 50
20260506195217 71 180 3.5 8.7 0.00 0.00 0.00 51
20260506195015 71 257 9.6 8.7 0.00 0.00 0.00 51
20260506194813 71 279 7.8 9.6 0.00 0.00 0.00 50
20260506194611 71 275 6.1 9.6 0.00 0.00 0.00 49
20260506194410 71 271 7.0 9.6 0.00 0.00 0.00 48
20260506194206 71 296 4.3 11.3 0.00 0.00 0.00 49
20260506194005 71 281 3.5 11.3 0.00 0.00 0.00 48
20260506193803 71 260 5.2 9.6 0.00 0.00 0.00 48
20260506193600 70 286 10.4 9.6 0.00 0.00 0.00 48
20260506193357 71 251 6.1 9.6 0.00 0.00 0.00 48
20260506193157 71 272 2.6 9.6 0.00 0.00 0.00 49
20260506192958 70 284 6.1 9.6 0.00 0.00 0.00 48
20260506192753 70 275 7.0 10.4 0.00 0.00 0.00 48
20260506192551 70 279 7.0 10.4 0.00 0.00 0.00 48
20260506192349 70 275 3.5 10.4 0.00 0.00 0.00 48
20260506192147 71 296 5.2 11.3 0.00 0.00 0.00 49
20260506191945 70 271 5.2 11.3 0.00 0.00 0.00 48
20260506191743 70 272 5.2 6.1 0.00 0.00 0.00 48
20260506191541 71 257 1.7 6.1 0.00 0.00 0.00 46
20260506191340 71 268 2.6 6.1 0.00 0.00 0.00 48
20260506191137 71 264 2.6 9.6 0.00 0.00 0.00 49
20260506190935 70 267 0.9 9.6 0.00 0.00 0.00 49
20260506190733 70 258 4.3 10.4 0.00 0.00 0.00 49
20260506190531 70 278 6.1 10.4 0.00 0.00 0.00 49
20260506190329 70 255 4.3 10.4 0.00 0.00 0.00 50
20260506190128 70 267 8.7 8.7 0.00 0.00 0.00 50
20260506185926 69 258 3.5 8.7 0.00 0.00 0.00 50
20260506185522 70 254 7.8 11.3 0.00 0.00 0.00 50
20260506185118 70 255 4.3 9.6 0.00 0.00 0.00 51
20260506184916 69 241 3.5 9.6 0.00 0.00 0.00 51
20260506184714 70 274 7.8 11.3 0.00 0.00 0.00 51
20260506184512 69 195 3.5 11.3 0.00 0.00 0.00 53
20260506184108 68 285 4.3 10.4 0.00 0.00 0.00 51
20260506183704 68 278 3.5 7.8 0.00 0.00 0.00 53
20260506183503 69 282 6.1 7.8 0.00 0.00 0.00 50
20260506183300 69 302 1.7 13.0 0.00 0.00 0.00 52
20260506182655 68 284 6.1 11.3 0.00 0.00 0.00 52
20260506182452 68 267 9.6 11.3 0.00 0.00 0.00 53
20260506182048 68 244 6.1 9.6 0.00 0.00 0.00 54
20260506181847 68 281 5.2 9.6 0.00 0.00 0.00 53
20260506181645 68 265 5.2 10.4 0.00 0.00 0.00 54
20260506181443 67 284 5.2 10.4 0.00 0.00 0.00 52
20260506181241 68 258 7.8 9.6 0.00 0.00 0.00 52
20260506181040 68 247 7.0 9.6 0.00 0.00 0.00 53
20260506180837 68 277 2.6 9.6 0.00 0.00 0.00 53
20260506180636 68 274 7.0 9.6 0.00 0.00 0.00 52
20260506180434 68 272 4.3 9.6 0.00 0.00 0.00 51
20260506180232 68 257 8.7 6.1 0.00 0.00 0.00 52
20260506180030 68 255 0.9 6.1 0.00 0.00 0.00 55
20260506175828 67 248 0.9 6.1 0.00 0.00 0.00 55
20260506175424 67 296 2.6 8.7 0.00 0.00 0.00 54
20260506175222 66 293 4.3 9.6 0.00 0.00 0.00 54
20260506175020 68 282 7.0 9.6 0.00 0.00 0.00 53
20260506174819 67 222 0.0 8.7 0.00 0.00 0.00 54
20260506174415 67 275 2.6 8.7 0.00 0.00 0.00 56
20260506174213 67 281 7.0 8.7 0.00 0.00 0.00 56
20260506174011 66 237 0.9 8.7 0.00 0.00 0.00 55
20260506173809 67 277 4.3 7.8 0.00 0.00 0.00 55
20260506173607 66 272 5.2 7.8 0.00 0.00 0.00 55
20260506173405 66 271 7.0 7.8 0.00 0.00 0.00 56
20260506173203 66 272 2.6 7.8 0.00 0.00 0.00 56
20260506173002 66 285 2.6 7.8 0.00 0.00 0.00 55
20260506172800 66 285 6.1 9.6 0.00 0.00 0.00 55
20260506172557 66 305 3.5 9.6 0.00 0.00 0.00 56
20260506172356 66 282 3.5 9.6 0.00 0.00 0.00 56
20260506171954 66 277 7.0 10.4 0.00 0.00 0.00 56
20260506171750 66 302 3.5 7.0 0.00 0.00 0.00 57
20260506171548 66 293 5.2 7.0 0.00 0.00 0.00 57
20260506171346 66 300 1.7 7.0 0.00 0.00 0.00 57
20260506171144 66 271 1.7 10.4 0.00 0.00 0.00 57
20260506170943 65 289 3.5 10.4 0.00 0.00 0.00 57
20260506170741 65 292 7.0 7.8 0.00 0.00 0.00 58
20260506170539 65 262 4.3 7.8 0.00 0.00 0.00 58
20260506170336 65 282 7.0 7.8 0.00 0.00 0.00 59
20260506170135 65 253 3.5 9.6 0.00 0.00 0.00 60
20260506165933 65 215 0.0 9.6 0.00 0.00 0.00 61
20260506165731 64 288 4.3 8.7 0.00 0.00 0.00 60
20260506165529 65 261 8.7 8.7 0.00 0.00 0.00 59
20260506165327 65 270 7.8 8.7 0.00 0.00 0.00 59
20260506165125 65 272 7.0 8.7 0.00 0.00 0.00 60
20260506164924 64 282 3.5 8.7 0.00 0.00 0.00 60
20260506164721 64 282 4.3 8.7 0.00 0.00 0.00 61
20260506164520 64 264 4.3 8.7 0.00 0.00 0.00 62
20260506164318 64 274 6.1 8.7 0.00 0.00 0.00 62
20260506164116 63 288 3.5 8.7 0.00 0.00 0.00 62
20260506163914 64 275 7.0 8.7 0.00 0.00 0.00 61
20260506163712 64 275 4.3 7.8 0.00 0.00 0.00 61
20260506163510 64 296 4.3 7.8 0.00 0.00 0.00 60
20260506163106 64 268 5.2 7.8 0.00 0.00 0.00 61
20260506162702 64 288 4.3 7.8 0.00 0.00 0.00 61
20260506162259 63 302 4.3 5.2 0.00 0.00 0.00 62
20260506162057 64 210 0.0 5.2 0.00 0.00 0.00 62
20260506161855 64 264 1.7 5.2 0.00 0.00 0.00 63
20260506161450 64 274 3.5 5.2 0.00 0.00 0.00 61
20260506161249 64 257 3.5 1.7 0.00 0.00 0.00 60
20260506160845 64 234 0.0 1.7 0.00 0.00 0.00 60
20260506160442 64 184 0.0 2.6 0.00 0.00 0.00 60
20260506160240 64 292 1.7 1.7 0.00 0.00 0.00 59
20260506160038 64 254 0.0 1.7 0.00 0.00 0.00 58
20260506155836 64 116 0.0 1.7 0.00 0.00 0.00 62
20260506155432 63 217 0.9 1.7 0.00 0.00 0.00 59
20260506155230 63 196 0.0 2.6 0.00 0.00 0.00 60
20260506154826 63 164 1.7 2.6 0.00 0.00 0.00 61
20260506154624 63 143 1.7 3.5 0.00 0.00 0.00 65
20260506154422 63 118 1.7 3.5 0.00 0.00 0.00 63
20260506154019 62 71 0.9 3.5 0.00 0.00 0.00 65
20260506153413 61 136 0.0 2.6 0.00 0.00 0.00 68
20260506153211 60 80 0.0 2.6 0.00 0.00 0.00 69
20260506153009 60 229 0.9 2.6 0.00 0.00 0.00 68
20260506152807 60 222 0.9 0.0 0.00 0.00 0.00 71
20260506152605 59 198 0.0 0.0 0.00 0.00 0.00 71
20260506152403 59 84 0.0 0.0 0.00 0.00 0.00 72
20260506152201 59 84 0.0 0.0 0.00 0.00 0.00 72
20260506152000 59 84 0.0 0.0 0.00 0.00 0.00 74
20260506151556 59 84 0.0 0.0 0.00 0.00 0.00 73
20260506151354 59 84 0.0 0.0 0.00 0.00 0.00 73
20260506151152 59 84 0.0 0.0 0.00 0.00 0.00 73
20260506150949 59 84 0.0 0.0 0.00 0.00 0.00 73
20260506150748 59 84 0.0 0.9 0.00 0.00 0.00 72
20260506150546 59 84 0.0 0.9 0.00 0.00 0.00 73
20260506150344 59 84 0.0 0.9 0.00 0.00 0.00 73
20260506150143 58 142 0.9 1.7 0.00 0.00 0.00 74
20260506145941 58 59 0.0 1.7 0.00 0.00 0.00 75
20260506145335 57 112 0.9 2.6 0.00 0.00 0.00 76
20260506145133 57 109 0.0 2.6 0.00 0.00 0.00 76
20260506144929 57 112 1.7 2.6 0.00 0.00 0.00 77
20260506144729 57 137 0.9 1.7 0.00 0.00 0.00 76
20260506144527 57 78 0.0 1.7 0.00 0.00 0.00 78
20260506144324 56 105 0.9 1.7 0.00 0.00 0.00 78
20260506144123 56 82 0.0 0.9 0.00 0.00 0.00 78
20260506143921 56 84 0.0 0.9 0.00 0.00 0.00 79
20260506143720 55 101 0.0 1.7 0.00 0.00 0.00 80
20260506143518 55 101 0.0 1.7 0.00 0.00 0.00 80
20260506143316 55 101 0.0 2.6 0.00 0.00 0.00 81
20260506143114 55 109 0.0 2.6 0.00 0.00 0.00 80
20260506142912 55 90 0.9 2.6 0.00 0.00 0.00 81
20260506142710 54 126 1.7 2.6 0.00 0.00 0.00 81
20260506142306 54 82 0.9 2.6 0.00 0.00 0.00 82
20260506142104 54 63 0.0 2.6 0.00 0.00 0.00 82
20260506141902 54 54 0.0 2.6 0.00 0.00 0.00 82
20260506141700 54 95 1.7 3.5 0.00 0.00 0.00 83
20260506141457 53 129 0.9 3.5 0.00 0.00 0.00 84
20260506141257 53 113 0.9 2.6 0.00 0.00 0.00 84
20260506141054 53 91 2.6 2.6 0.00 0.00 0.00 85
20260506140853 53 102 1.7 2.6 0.00 0.00 0.00 85